• In Österreich
  • Länderverzeichnis
  • Für 7 Tage
  • Wassertemperatur
  • Satellitenkarten
  • Wetterkarte
  • News
  • Widgets
  • user-avatar
    Anmelden

    Stündliche Wetter Kielminek

    Heute, 22 September, Samstag

    Zeit Temperatur Niederschläge Wind Luftdruck Luftfeuchtigkeit
    00:00 +16°C° 1 mm 7 m/S 744 mmHg 77%
    01:00 +13°C° 0 mm 6 m/S 745 mmHg 83%
    02:00 +13°C° 0.5 mm 6 m/S 746 mmHg 82%
    03:00 +11°C° 0.5 mm 6 m/S 746 mmHg 80%
    04:00 +11°C° 0.5 mm 6 m/S 747 mmHg 79%
    05:00 +11°C° 0 mm 6 m/S 747 mmHg 78%
    06:00 +11°C° 0 mm 6 m/S 748 mmHg 76%
    07:00 +10°C° 0 mm 7 m/S 748 mmHg 74%
    08:00 +11°C° 0 mm 7 m/S 748 mmHg 69%
    09:00 +12°C° 0 mm 7 m/S 749 mmHg 64%
    10:00 +13°C° 0 mm 8 m/S 749 mmHg 59%
    11:00 +15°C° 0 mm 8 m/S 749 mmHg 56%
    12:00 +15°C° 0 mm 8 m/S 749 mmHg 54%
    13:00 +16°C° 0 mm 8 m/S 749 mmHg 52%
    14:00 +16°C° 0.1 mm 7 m/S 749 mmHg 53%
    15:00 +15°C° 0.1 mm 6 m/S 749 mmHg 54%
    16:00 +15°C° 0.1 mm 6 m/S 749 mmHg 55%
    17:00 +14°C° 0 mm 5 m/S 749 mmHg 59%
    18:00 +13°C° 0 mm 5 m/S 749 mmHg 62%
    19:00 +12°C° 0 mm 5 m/S 749 mmHg 66%
    20:00 +12°C° 0 mm 5 m/S 749 mmHg 67%
    21:00 +10°C° 0 mm 5 m/S 749 mmHg 67%
    22:00 +10°C° 0 mm 6 m/S 749 mmHg 68%
    23:00 +10°C° 0 mm 6 m/S 749 mmHg 69%

    Morgen, 23 September, Sonntag

    Zeit Temperatur Niederschläge Wind Luftdruck Luftfeuchtigkeit
    00:00 +10°C° 0 mm 6 m/S 748 mmHg 70%
    01:00 +10°C° 0 mm 6 m/S 748 mmHg 71%
    02:00 +9°C° 0 mm 6 m/S 748 mmHg 73%
    03:00 +9°C° 0 mm 6 m/S 748 mmHg 75%
    04:00 +8°C° 0 mm 6 m/S 748 mmHg 78%
    05:00 +8°C° 0 mm 6 m/S 748 mmHg 77%
    06:00 +9°C° 0 mm 6 m/S 748 mmHg 76%
    07:00 +9°C° 0 mm 7 m/S 748 mmHg 76%
    08:00 +10°C° 0 mm 7 m/S 748 mmHg 70%
    09:00 +11°C° 0 mm 7 m/S 748 mmHg 64%
    10:00 +12°C° 0 mm 7 m/S 748 mmHg 59%
    11:00 +14°C° 0 mm 7 m/S 748 mmHg 56%
    12:00 +15°C° 0 mm 6 m/S 748 mmHg 53%
    13:00 +15°C° 0 mm 6 m/S 748 mmHg 50%
    14:00 +15°C° 0.1 mm 5 m/S 747 mmHg 52%
    15:00 +15°C° 0.1 mm 5 m/S 747 mmHg 54%
    16:00 +14°C° 0.1 mm 4 m/S 746 mmHg 55%
    17:00 +13°C° 0.1 mm 3 m/S 746 mmHg 58%
    18:00 +12°C° 0.1 mm 3 m/S 746 mmHg 61%
    19:00 +11°C° 0.1 mm 3 m/S 745 mmHg 64%
    20:00 +12°C° 0 mm 2 m/S 745 mmHg 67%
    21:00 +10°C° 0 mm 2 m/S 744 mmHg 70%
    22:00 +10°C° 0 mm 2 m/S 744 mmHg 72%
    23:00 +10°C° 0.1 mm 2 m/S 744 mmHg 74%

    übermorgen, 24 September, Montag

    Zeit Temperatur Niederschläge Wind Luftdruck Luftfeuchtigkeit
    00:00 +10°C° 0.1 mm 2 m/S 743 mmHg 76%
    01:00 +10°C° 0.1 mm 2 m/S 743 mmHg 78%
    02:00 +10°C° 0.6 mm 3 m/S 743 mmHg 81%
    03:00 +9°C° 0.6 mm 3 m/S 743 mmHg 84%
    04:00 +8°C° 0.6 mm 4 m/S 743 mmHg 86%
    05:00 +9°C° 0.4 mm 5 m/S 744 mmHg 84%
    06:00 +9°C° 0.4 mm 5 m/S 744 mmHg 81%
    07:00 +9°C° 0.4 mm 6 m/S 745 mmHg 78%
    08:00 +10°C° 0.2 mm 7 m/S 745 mmHg 72%
    09:00 +11°C° 0.2 mm 7 m/S 746 mmHg 66%
    10:00 +12°C° 0.2 mm 8 m/S 746 mmHg 59%
    11:00 +12°C° 0.5 mm 8 m/S 747 mmHg 60%
    12:00 +12°C° 0.5 mm 8 m/S 747 mmHg 60%
    13:00 +12°C° 0.5 mm 9 m/S 748 mmHg 60%
    14:00 +11°C° 0.6 mm 9 m/S 748 mmHg 63%
    15:00 +10°C° 0.6 mm 8 m/S 749 mmHg 66%
    16:00 +9°C° 0.6 mm 8 m/S 750 mmHg 69%
    17:00 +7°C° 0.1 mm 8 m/S 751 mmHg 70%
    18:00 +6°C° 0.1 mm 7 m/S 752 mmHg 71%
    19:00 +7°C° 0.1 mm 6 m/S 753 mmHg 73%
    20:00 +5°C° 0.1 mm 6 m/S 753 mmHg 73%
    21:00 +5°C° 0.1 mm 6 m/S 754 mmHg 73%
    22:00 +6°C° 0.1 mm 5 m/S 755 mmHg 73%
    23:00 +5°C° 0.2 mm 5 m/S 755 mmHg 74%

    25 September, Dienstag

    Zeit Temperatur Niederschläge Wind Luftdruck Luftfeuchtigkeit
    00:00 +5°C° 0.2 mm 5 m/S 756 mmHg 74%
    01:00 +5°C° 0.2 mm 5 m/S 756 mmHg 75%
    02:00 +5°C° 0.2 mm 5 m/S 757 mmHg 75%
    03:00 +4°C° 0.2 mm 6 m/S 757 mmHg 75%
    04:00 +4°C° 0.2 mm 6 m/S 758 mmHg 74%
    05:00 +5°C° 0.3 mm 6 m/S 758 mmHg 74%
    06:00 +5°C° 0.3 mm 6 m/S 759 mmHg 73%
    07:00 +7°C° 0.3 mm 6 m/S 760 mmHg 72%
    08:00 +8°C° 0.4 mm 7 m/S 760 mmHg 67%
    09:00 +9°C° 0.4 mm 8 m/S 761 mmHg 62%
    10:00 +10°C° 0.4 mm 8 m/S 762 mmHg 57%
    11:00 +10°C° 0.2 mm 8 m/S 762 mmHg 54%
    12:00 +11°C° 0.2 mm 8 m/S 762 mmHg 51%
    13:00 +11°C° 0.2 mm 8 m/S 763 mmHg 48%
    14:00 +11°C° 0 mm 7 m/S 763 mmHg 49%
    15:00 +11°C° 0 mm 6 m/S 763 mmHg 50%
    16:00 +12°C° 0 mm 5 m/S 763 mmHg 51%
    17:00 +10°C° 0 mm 5 m/S 763 mmHg 56%
    18:00 +8°C° 0 mm 5 m/S 763 mmHg 61%
    19:00 +7°C° 0 mm 4 m/S 764 mmHg 67%
    20:00 +7°C° 0 mm 5 m/S 764 mmHg 69%
    21:00 +7°C° 0 mm 5 m/S 764 mmHg 71%
    22:00 +6°C° 0 mm 5 m/S 764 mmHg 73%
    23:00 +6°C° 0 mm 5 m/S 764 mmHg 75%

    26 September, Mittwoch

    Zeit Temperatur Niederschläge Wind Luftdruck Luftfeuchtigkeit
    00:00 +6°C° 0 mm 5 m/S 764 mmHg 76%
    01:00 +6°C° 0 mm 5 m/S 764 mmHg 78%
    02:00 +5°C° 0 mm 6 m/S 763 mmHg 77%
    03:00 +5°C° 0 mm 6 m/S 763 mmHg 77%
    04:00 +5°C° 0 mm 6 m/S 763 mmHg 76%
    05:00 +5°C° 0 mm 6 m/S 763 mmHg 73%
    06:00 +5°C° 0 mm 7 m/S 762 mmHg 70%
    07:00 +6°C° 0 mm 7 m/S 762 mmHg 67%
    08:00 +7°C° 0 mm 8 m/S 762 mmHg 61%
    09:00 +9°C° 0 mm 8 m/S 761 mmHg 55%
    10:00 +11°C° 0 mm 9 m/S 761 mmHg 49%
    11:00 +11°C° 0.1 mm 9 m/S 761 mmHg 50%
    12:00 +11°C° 0.1 mm 9 m/S 760 mmHg 51%
    13:00 +11°C° 0.1 mm 8 m/S 759 mmHg 52%
    14:00 +10°C° 0.2 mm 8 m/S 759 mmHg 54%
    15:00 +10°C° 0.2 mm 8 m/S 758 mmHg 56%
    16:00 +10°C° 0.2 mm 8 m/S 757 mmHg 57%
    17:00 +10°C° 0.2 mm 7 m/S 757 mmHg 57%
    18:00 +10°C° 0.2 mm 7 m/S 756 mmHg 56%
    19:00 +10°C° 0.2 mm 7 m/S 756 mmHg 56%
    20:00 +10°C° 0 mm 7 m/S 756 mmHg 54%
    21:00 +11°C° 0 mm 7 m/S 755 mmHg 52%
    22:00 +11°C° 0 mm 8 m/S 755 mmHg 50%
    23:00 +11°C° 0 mm 8 m/S 754 mmHg 51%

    27 September, Donnerstag

    Zeit Temperatur Niederschläge Wind Luftdruck Luftfeuchtigkeit
    00:00 +11°C° 0 mm 8 m/S 754 mmHg 51%
    01:00 +11°C° 0 mm 8 m/S 753 mmHg 52%
    02:00 +11°C° 0.1 mm 8 m/S 753 mmHg 55%
    03:00 +11°C° 0.1 mm 8 m/S 752 mmHg 59%
    04:00 +11°C° 0.1 mm 8 m/S 752 mmHg 63%
    05:00 +11°C° 0 mm 8 m/S 752 mmHg 66%
    06:00 +12°C° 0 mm 9 m/S 751 mmHg 69%
    07:00 +12°C° 0 mm 9 m/S 751 mmHg 72%
    08:00 +13°C° 0.2 mm 9 m/S 751 mmHg 72%
    09:00 +13°C° 0.2 mm 9 m/S 751 mmHg 72%
    10:00 +14°C° 0.2 mm 10 m/S 751 mmHg 72%
    11:00 +15°C° 0.4 mm 9 m/S 751 mmHg 75%
    12:00 +15°C° 0.4 mm 8 m/S 751 mmHg 79%
    13:00 +13°C° 0.4 mm 8 m/S 751 mmHg 82%
    14:00 +14°C° 0.2 mm 7 m/S 751 mmHg 81%
    15:00 +14°C° 0.2 mm 7 m/S 751 mmHg 80%
    16:00 +14°C° 0.2 mm 7 m/S 751 mmHg 80%
    17:00 +13°C° 0 mm 6 m/S 751 mmHg 80%
    18:00 +11°C° 0 mm 6 m/S 751 mmHg 80%
    19:00 +10°C° 0 mm 6 m/S 751 mmHg 79%
    20:00 +10°C° 0.1 mm 6 m/S 751 mmHg 78%
    21:00 +10°C° 0.1 mm 6 m/S 751 mmHg 77%
    22:00 +10°C° 0.1 mm 6 m/S 751 mmHg 76%
    23:00 +9°C° 0.1 mm 6 m/S 751 mmHg 76%
    Mehr zeigen